Location: Jackson Park
(37.2862°N, 79.9123°W)
Time: 21:38:35
(UTC+00:00)

Transit 4A - Pass Details

Date: 15 May 2026
Orbit: 860 x 980 km, 66.8° (Epoch: 9 June)

Event Time Altitude Azimuth Distance (km) Brightness Sun altitude
Rises 21:07:58 0° 341° (NNW) 3,686 11.2 36.6°
Reaches altitude 10° 21:10:56 10° 352° (N) 2,738 10.5 36.0°
Maximum altitude 21:16:25 29° 51° (NE) 1,713 9.2 34.9°
Drops below altitude 10° 21:21:51 10° 110° (ESE) 2,706 9.9 33.8°
Sets 21:24:45 0° 121° (ESE) 3,637 10.6 33.3°
